Year,Month,Day,Hour,Minute,Value (Times are PST for temperature in C)
2009,08,19,08,56,17.50
2009,08,19,08,57,17.50
2009,08,19,08,58,17.60
2009,08,19,08,59,17.70
2009,08,19,09,00,17.80
2009,08,19,09,01,17.90
2009,08,19,09,02,18.00
2009,08,19,09,03,18.00
2009,08,19,09,04,18.10
2009,08,19,09,05,18.20
2009,08,19,09,06,18.30
2009,08,19,09,07,18.30
2009,08,19,09,08,18.40
2009,08,19,09,09,18.50
2009,08,19,09,10,18.60
2009,08,19,09,11,18.70
2009,08,19,09,12,18.80
2009,08,19,09,13,18.90
2009,08,19,09,14,19.00
2009,08,19,09,15,19.10
2009,08,19,09,16,19.20
2009,08,19,09,17,19.30
2009,08,19,09,18,19.30
2009,08,19,09,19,19.40
2009,08,19,09,20,19.50
2009,08,19,09,21,19.50
2009,08,19,09,22,19.60
2009,08,19,09,23,19.70
2009,08,19,09,24,19.70
2009,08,19,09,25,19.80
2009,08,19,09,26,19.90
2009,08,19,09,27,20.00
2009,08,19,09,28,20.10
2009,08,19,09,29,20.20
2009,08,19,09,30,20.20
2009,08,19,09,31,20.30
2009,08,19,09,32,20.40
2009,08,19,09,33,20.40
2009,08,19,09,34,20.50
2009,08,19,09,35,20.50
2009,08,19,09,36,20.60
2009,08,19,09,37,20.70
2009,08,19,09,38,20.70
2009,08,19,09,39,20.80
2009,08,19,09,40,20.80
2009,08,19,09,41,20.90
2009,08,19,09,42,21.00
2009,08,19,09,43,21.10
2009,08,19,09,44,21.20
2009,08,19,09,45,21.20
2009,08,19,09,46,21.30
2009,08,19,09,47,21.30
2009,08,19,09,48,21.40
2009,08,19,09,49,21.50
2009,08,19,09,50,21.50
2009,08,19,09,51,21.60
2009,08,19,09,52,21.60
2009,08,19,09,53,21.70
2009,08,19,09,54,21.70
2009,08,19,09,55,21.70
2009,08,19,09,56,21.70
2009,08,19,09,57,21.70
2009,08,19,09,58,21.80
2009,08,19,09,59,21.80
2009,08,19,10,00,21.80
2009,08,19,10,01,21.90
2009,08,19,10,02,21.90
2009,08,19,10,03,22.00
2009,08,19,10,04,22.10
2009,08,19,10,05,22.10
2009,08,19,10,06,22.20
2009,08,19,10,07,22.20
2009,08,19,10,08,22.30
2009,08,19,10,09,22.30
2009,08,19,10,10,22.30
2009,08,19,10,11,22.40
2009,08,19,10,12,22.40
2009,08,19,10,13,22.40
2009,08,19,10,14,22.40
2009,08,19,10,15,22.50
2009,08,19,10,16,22.50
2009,08,19,10,17,22.60
2009,08,19,10,18,22.60
2009,08,19,10,19,22.70
2009,08,19,10,20,22.80
2009,08,19,10,21,22.80
2009,08,19,10,22,22.90
2009,08,19,10,23,22.90
2009,08,19,10,24,23.00
2009,08,19,10,25,23.10
2009,08,19,10,26,23.20
2009,08,19,10,27,23.20
2009,08,19,10,28,23.20
2009,08,19,10,29,23.20
2009,08,19,10,30,23.30
2009,08,19,10,31,23.40
2009,08,19,10,32,23.40
2009,08,19,10,33,23.40
2009,08,19,10,34,23.40
2009,08,19,10,35,23.40
2009,08,19,10,36,23.40
2009,08,19,10,37,23.40
2009,08,19,10,38,23.40
2009,08,19,10,39,23.40
2009,08,19,10,40,23.40
2009,08,19,10,41,23.40
2009,08,19,10,42,23.40
2009,08,19,10,43,23.40
2009,08,19,10,44,23.50
2009,08,19,10,45,23.60
2009,08,19,10,46,23.60
2009,08,19,10,47,23.70
2009,08,19,10,48,23.80
2009,08,19,10,49,23.90
2009,08,19,10,50,24.00
2009,08,19,10,51,24.00
2009,08,19,10,52,24.10
2009,08,19,10,53,24.20
2009,08,19,10,54,24.20
2009,08,19,10,55,24.30
2009,08,19,10,56,24.40
2009,08,19,10,57,24.40
2009,08,19,10,58,24.50
2009,08,19,10,59,24.60
2009,08,19,11,00,24.70
2009,08,19,11,01,24.70
2009,08,19,11,02,24.80
2009,08,19,11,03,24.90
2009,08,19,11,04,24.90
2009,08,19,11,05,24.90
2009,08,19,11,06,25.00
2009,08,19,11,07,25.00
2009,08,19,11,08,25.10
2009,08,19,11,09,25.10
2009,08,19,11,10,25.10
2009,08,19,11,11,25.20
2009,08,19,11,12,25.20
2009,08,19,11,13,25.20
2009,08,19,11,14,25.20
2009,08,19,11,15,25.30
2009,08,19,11,16,25.30
2009,08,19,11,17,25.30
2009,08,19,11,18,25.20
2009,08,19,11,19,25.10
2009,08,19,11,20,25.10
2009,08,19,11,21,25.20
2009,08,19,11,22,25.20
2009,08,19,11,23,25.30
2009,08,19,11,24,25.40
2009,08,19,11,25,25.40
2009,08,19,11,26,25.50
2009,08,19,11,27,25.60
2009,08,19,11,28,25.70
2009,08,19,11,29,25.80
2009,08,19,11,30,25.90
2009,08,19,11,31,25.90
2009,08,19,11,32,25.90
2009,08,19,11,33,26.00
2009,08,19,11,34,26.10
2009,08,19,11,35,26.10
2009,08,19,11,36,26.10
2009,08,19,11,37,26.20
2009,08,19,11,38,26.20
2009,08,19,11,39,26.20
2009,08,19,11,40,26.20
2009,08,19,11,41,26.20
2009,08,19,11,42,26.20
2009,08,19,11,43,26.20
2009,08,19,11,44,26.20
2009,08,19,11,45,26.10
2009,08,19,11,46,26.10
2009,08,19,11,47,26.10
2009,08,19,11,48,26.10
2009,08,19,11,49,26.10
2009,08,19,11,50,26.20
2009,08,19,11,51,26.20
2009,08,19,11,52,26.20
2009,08,19,11,53,26.20
2009,08,19,11,54,26.20
2009,08,19,11,55,26.30
2009,08,19,11,56,26.30
2009,08,19,11,57,26.40
2009,08,19,11,58,26.40
2009,08,19,11,59,26.40
2009,08,19,12,00,26.40
2009,08,19,12,01,26.50
2009,08,19,12,02,26.50
2009,08,19,12,03,26.60
2009,08,19,12,04,26.60
2009,08,19,12,05,26.60
2009,08,19,12,06,26.70
2009,08,19,12,07,26.70
2009,08,19,12,08,26.80
2009,08,19,12,09,26.80
2009,08,19,12,10,26.80
2009,08,19,12,11,26.90
2009,08,19,12,12,26.90
2009,08,19,12,13,26.90
2009,08,19,12,14,27.00
2009,08,19,12,15,27.10
2009,08,19,12,16,27.20
2009,08,19,12,17,27.30
2009,08,19,12,18,27.30
2009,08,19,12,19,27.30
2009,08,19,12,20,27.20
2009,08,19,12,21,27.10
2009,08,19,12,22,27.10
2009,08,19,12,23,27.00
2009,08,19,12,24,27.10
2009,08,19,12,25,27.10
2009,08,19,12,26,27.10
2009,08,19,12,27,27.20
2009,08,19,12,28,27.20
2009,08,19,12,29,27.20
2009,08,19,12,30,27.30
2009,08,19,12,31,27.30
2009,08,19,12,32,27.40
2009,08,19,12,33,27.50
2009,08,19,12,34,27.60
2009,08,19,12,35,27.70
2009,08,19,12,36,27.70
2009,08,19,12,37,27.70
2009,08,19,12,38,27.80
2009,08,19,12,39,27.80
2009,08,19,12,40,27.90
2009,08,19,12,41,27.90
2009,08,19,12,42,27.90
2009,08,19,12,43,27.70
2009,08,19,12,44,27.70
2009,08,19,12,45,27.70
2009,08,19,12,46,27.70
2009,08,19,12,47,27.80
2009,08,19,12,48,27.80
2009,08,19,12,49,27.90
2009,08,19,12,50,28.00
2009,08,19,12,51,28.00
2009,08,19,12,52,28.10
2009,08,19,12,53,28.20
2009,08,19,12,54,28.20
2009,08,19,12,55,28.20
2009,08,19,12,56,28.30
2009,08,19,12,57,28.30
2009,08,19,12,58,28.40
2009,08,19,12,59,28.40
2009,08,19,13,00,28.20
2009,08,19,13,01,28.20
2009,08,19,13,02,28.20
2009,08,19,13,03,28.20
2009,08,19,13,04,28.20
2009,08,19,13,05,28.30
2009,08,19,13,06,28.40
2009,08,19,13,07,28.40
2009,08,19,13,08,28.40
2009,08,19,13,09,28.50
2009,08,19,13,10,28.50
2009,08,19,13,11,28.60
2009,08,19,13,12,28.60
2009,08,19,13,13,28.70
2009,08,19,13,14,28.70
2009,08,19,13,15,28.80
2009,08,19,13,16,28.90
2009,08,19,13,17,28.90
2009,08,19,13,18,29.00
2009,08,19,13,19,29.10
2009,08,19,13,20,29.10
2009,08,19,13,21,29.10
2009,08,19,13,22,29.10
2009,08,19,13,23,29.10
2009,08,19,13,24,29.10
2009,08,19,13,25,29.20
2009,08,19,13,26,29.20
2009,08,19,13,27,29.20
2009,08,19,13,28,29.10
2009,08,19,13,29,29.00
2009,08,19,13,30,29.00
2009,08,19,13,31,29.00
2009,08,19,13,32,29.00
2009,08,19,13,33,29.00
2009,08,19,13,34,29.00
2009,08,19,13,35,29.10
2009,08,19,13,36,29.10
2009,08,19,13,37,29.20
2009,08,19,13,38,29.20
2009,08,19,13,39,29.30
2009,08,19,13,40,29.30
2009,08,19,13,41,29.30
2009,08,19,13,42,29.30
2009,08,19,13,43,29.30
2009,08,19,13,44,29.30
2009,08,19,13,45,29.20
2009,08,19,13,46,29.10
2009,08,19,13,47,29.10
2009,08,19,13,48,29.10
2009,08,19,13,49,29.10
2009,08,19,13,50,29.10
2009,08,19,13,51,29.10
2009,08,19,13,52,29.00
2009,08,19,13,53,29.00
2009,08,19,13,54,29.00
2009,08,19,13,55,29.00
2009,08,19,13,56,29.00
2009,08,19,13,57,29.10
2009,08,19,13,58,29.10
2009,08,19,13,59,29.10
2009,08,19,14,00,29.20
2009,08,19,14,01,29.20
2009,08,19,14,02,29.30
2009,08,19,14,03,29.40
2009,08,19,14,04,29.40
2009,08,19,14,05,29.40
2009,08,19,14,06,29.50
2009,08,19,14,07,29.50
2009,08,19,14,08,29.60
2009,08,19,14,09,29.80
2009,08,19,14,10,29.90
2009,08,19,14,11,30.00
2009,08,19,14,12,30.00
2009,08,19,14,13,30.00
2009,08,19,14,14,30.00
2009,08,19,14,15,30.00
2009,08,19,14,16,29.90
2009,08,19,14,17,29.80
2009,08,19,14,18,29.80
2009,08,19,14,19,29.80
2009,08,19,14,20,29.80
2009,08,19,14,21,29.80
2009,08,19,14,22,29.80
2009,08,19,14,23,29.70
2009,08,19,14,24,29.70
2009,08,19,14,25,29.70
2009,08,19,14,26,29.70
2009,08,19,14,27,29.70
2009,08,19,14,28,29.70
2009,08,19,14,29,29.70
2009,08,19,14,30,29.60
2009,08,19,14,31,29.60
2009,08,19,14,32,29.60
2009,08,19,14,33,29.60
2009,08,19,14,34,29.70
2009,08,19,14,35,29.70
2009,08,19,14,36,29.80
2009,08,19,14,37,29.80
2009,08,19,14,38,29.80
2009,08,19,14,39,29.80
2009,08,19,14,40,29.80
2009,08,19,14,41,29.90
2009,08,19,14,42,29.90
2009,08,19,14,43,29.90
2009,08,19,14,44,29.90
2009,08,19,14,45,29.90
2009,08,19,14,46,29.90
2009,08,19,14,47,29.90
2009,08,19,14,48,29.90
2009,08,19,14,49,29.90
2009,08,19,14,50,29.90
2009,08,19,14,51,29.80
2009,08,19,14,52,29.80
2009,08,19,14,53,29.70
2009,08,19,14,54,29.70
2009,08,19,14,55,29.70
2009,08,19,14,56,29.70
2009,08,19,14,57,29.70
2009,08,19,14,58,29.70
2009,08,19,14,59,29.80
2009,08,19,15,00,29.80
2009,08,19,15,01,29.90
2009,08,19,15,02,29.90
2009,08,19,15,03,29.90
2009,08,19,15,04,29.90
2009,08,19,15,05,29.90
2009,08,19,15,06,30.00
2009,08,19,15,07,30.00
2009,08,19,15,08,30.00
2009,08,19,15,09,30.10
2009,08,19,15,10,30.10
2009,08,19,15,11,30.10
2009,08,19,15,12,30.20
2009,08,19,15,13,30.20
2009,08,19,15,14,30.20
2009,08,19,15,15,30.30
2009,08,19,15,16,30.30
2009,08,19,15,17,30.40
2009,08,19,15,18,30.40
2009,08,19,15,19,30.30
2009,08,19,15,20,30.30
2009,08,19,15,21,30.30
2009,08,19,15,22,30.30
2009,08,19,15,23,30.20
2009,08,19,15,24,30.20
2009,08,19,15,25,30.20
2009,08,19,15,26,30.20
2009,08,19,15,27,30.30
2009,08,19,15,28,30.30
2009,08,19,15,29,30.20
2009,08,19,15,30,30.20
2009,08,19,15,31,30.10
2009,08,19,15,32,30.10
2009,08,19,15,33,30.00
2009,08,19,15,34,29.90
2009,08,19,15,35,29.90
2009,08,19,15,36,29.90
2009,08,19,15,37,29.90
2009,08,19,15,38,30.00
2009,08,19,15,39,30.10
2009,08,19,15,40,30.20
2009,08,19,15,41,30.20
2009,08,19,15,42,30.30
2009,08,19,15,43,30.30
2009,08,19,15,44,30.30
2009,08,19,15,45,30.30
2009,08,19,15,46,30.30
2009,08,19,15,47,30.30
2009,08,19,15,48,30.30
2009,08,19,15,49,30.20
2009,08,19,15,50,30.20
2009,08,19,15,51,30.20
2009,08,19,15,52,30.20
2009,08,19,15,53,30.20
2009,08,19,15,54,30.20
2009,08,19,15,55,30.20
2009,08,19,15,56,30.20
2009,08,19,15,57,30.20
2009,08,19,15,58,30.20
2009,08,19,15,59,30.20
2009,08,19,16,00,30.20
2009,08,19,16,01,30.20
2009,08,19,16,02,30.30
2009,08,19,16,03,30.30
2009,08,19,16,04,30.40
2009,08,19,16,05,30.40
2009,08,19,16,06,30.40
2009,08,19,16,07,30.40
2009,08,19,16,08,30.40
2009,08,19,16,09,30.30
2009,08,19,16,10,30.30
2009,08,19,16,11,30.30
2009,08,19,16,12,30.30
2009,08,19,16,13,30.30
2009,08,19,16,14,30.40
2009,08,19,16,15,30.40
2009,08,19,16,16,30.40
2009,08,19,16,17,30.50
2009,08,19,16,18,30.50
2009,08,19,16,19,30.40
2009,08,19,16,20,30.40
2009,08,19,16,21,30.40
2009,08,19,16,22,30.30
2009,08,19,16,23,30.30
2009,08,19,16,24,30.30
2009,08,19,16,25,30.30
2009,08,19,16,26,30.30
2009,08,19,16,27,30.40
2009,08,19,16,28,30.40
2009,08,19,16,29,30.50
2009,08,19,16,30,30.60
2009,08,19,16,31,30.60
2009,08,19,16,32,30.60
2009,08,19,16,33,30.60
2009,08,19,16,34,30.60
2009,08,19,16,35,30.50
2009,08,19,16,36,30.50
2009,08,19,16,37,30.50
2009,08,19,16,38,30.50
2009,08,19,16,39,30.60
2009,08,19,16,40,30.60
2009,08,19,16,41,30.60
2009,08,19,16,42,30.60
2009,08,19,16,43,30.60
2009,08,19,16,44,30.60
2009,08,19,16,45,30.60
2009,08,19,16,46,30.60
2009,08,19,16,47,30.60
2009,08,19,16,48,30.60
2009,08,19,16,49,30.60
2009,08,19,16,50,30.60
2009,08,19,16,51,30.60
2009,08,19,16,52,30.60
2009,08,19,16,53,30.60
2009,08,19,16,54,30.60
2009,08,19,16,55,30.60
2009,08,19,16,56,30.60
2009,08,19,16,57,30.60
2009,08,19,16,58,30.70
2009,08,19,16,59,30.70
2009,08,19,17,00,30.70
2009,08,19,17,01,30.80
2009,08,19,17,02,30.80
2009,08,19,17,03,30.80
2009,08,19,17,04,30.80
2009,08,19,17,05,30.90
2009,08,19,17,06,30.80
2009,08,19,17,07,30.80
2009,08,19,17,08,30.70
2009,08,19,17,09,30.70
2009,08,19,17,10,30.70
2009,08,19,17,11,30.70
2009,08,19,17,12,30.70
2009,08,19,17,13,30.70
2009,08,19,17,14,30.80
2009,08,19,17,15,30.80
2009,08,19,17,16,30.80
2009,08,19,17,17,30.70
2009,08,19,17,18,30.70
2009,08,19,17,19,30.70
2009,08,19,17,20,30.70
2009,08,19,17,21,30.70
2009,08,19,17,22,30.70
2009,08,19,17,23,30.70
2009,08,19,17,24,30.80
2009,08,19,17,25,30.80
2009,08,19,17,26,30.80
2009,08,19,17,27,30.80
2009,08,19,17,28,30.90
2009,08,19,17,29,30.90
2009,08,19,17,30,30.90
2009,08,19,17,31,30.90
2009,08,19,17,32,30.90
2009,08,19,17,33,30.90
2009,08,19,17,34,30.90
2009,08,19,17,35,30.90
2009,08,19,17,36,30.90
2009,08,19,17,37,30.90
2009,08,19,17,38,30.90
2009,08,19,17,39,30.90
2009,08,19,17,40,30.90
2009,08,19,17,41,31.00
2009,08,19,17,42,31.00
2009,08,19,17,43,31.00
2009,08,19,17,44,31.00
2009,08,19,17,45,31.00
2009,08,19,17,46,31.10
2009,08,19,17,47,31.10
2009,08,19,17,48,31.10
2009,08,19,17,49,31.20
2009,08,19,17,50,31.10
2009,08,19,17,51,31.20
2009,08,19,17,52,31.20
2009,08,19,17,53,31.20
2009,08,19,17,54,31.20
2009,08,19,17,55,31.20
2009,08,19,17,56,31.20
2009,08,19,17,57,31.20
2009,08,19,17,58,31.10
2009,08,19,17,59,31.10
2009,08,19,18,00,31.10
2009,08,19,18,01,31.10
2009,08,19,18,02,31.10
2009,08,19,18,03,31.10
2009,08,19,18,04,31.20
2009,08,19,18,05,31.20
2009,08,19,18,06,31.30
2009,08,19,18,07,31.30
2009,08,19,18,08,31.20
2009,08,19,18,09,31.20
2009,08,19,18,10,31.10
2009,08,19,18,11,31.00
2009,08,19,18,12,31.00
2009,08,19,18,13,30.90
2009,08,19,18,14,30.90
2009,08,19,18,15,30.80
2009,08,19,18,16,30.80
2009,08,19,18,17,30.80
2009,08,19,18,18,30.80
2009,08,19,18,19,30.80
2009,08,19,18,20,30.80
2009,08,19,18,21,30.80
2009,08,19,18,22,30.80
2009,08,19,18,23,30.80
2009,08,19,18,24,30.80
2009,08,19,18,25,30.80
2009,08,19,18,26,30.80
